[[{"header":{"parameterUnit":"m.s-1","parameterCategory":1,"la1":30.2991,"la2":30.254,"lo1":-89.0895,"lo2":-89.0444,"dy":0.0017,"dx":0.0017,"nx":28,"ny":28,"refTime":"2024-07-03T09:00:00:Z","depth":0,"parameterNumber":2,"parameterNumberName":"U-component_of_WINDS"},"data":[0,0,0,0,0,0,0,0,0,0,0,0,0,0,0,0,0,0,0,0,0,0,0,0,0,0,0,0,0,0,0,0,0,0,0,0,0,0,0,0,0,0,0,0,0,0,0,0,0,0,0,0,0,0,0,0,0,0,-0.3748,-0.3747,0,-0.3646,-0.3645,-0.3643,-0.3586,-0.3586,-0.3586,-0.3586,-0.3482,-0.3479,-0.3477,0,0,0,0,0,0,0,0,0,0,0,0,0,-0.3893,-0.3891,-0.3748,-0.3747,-0.3745,-0.3646,-0.3645,-0.3643,-0.3586,-0.3586,-0.3586,-0.3586,-0.3483,-0.348,-0.3477,0,0,0,0,0,0,0,0,0,0,0,0,0,-0.3815,-0.389,-0.3748,-0.3705,-0.37,-0.3646,-0.3645,-0.3643,-0.3586,-0.3586,-0.3586,-0.3586,-0.3484,-0.348,-0.3476,-0.3458,0,0,-0.3464,-0.3463,0,0,0,0,0,0,0,0,-0.3819,-0.381,-0.3712,-0.3708,-0.3702,-0.3628,-0.3658,-0.3581,-0.3586,-0.363,-0.3586,-0.3585,-0.3531,-0.3523,-0.3505,-0.3453,-0.3448,-0.3464,-0.3462,-0.346,-0.3459,0,0,0,0,0,0,0,-0.3825,-0.3814,-0.3707,-0.3711,-0.3705,-0.3691,-0.3679,-0.3643,-0.3583,-0.3626,-0.3621,-0.361,-0.3528,-0.3509,-0.3502,-0.3447,-0.3464,-0.3461,-0.3458,-0.3457,-0.3374,-0.3374,0,0,0,0,0,0,-0.3837,-0.3819,-0.3711,-0.3704,-0.3761,-0.3688,-0.3675,-0.3652,-0.3583,-0.3572,-0.361,-0.3608,-0.3515,-0.3506,-0.3498,-0.3471,-0.346,-0.3456,-0.3454,-0.3374,-0.3374,-0.3374,0,0,0,0,0,0,-0.384,-0.3828,-0.3715,-0.376,-0.3745,-0.3686,-0.3661,-0.3651,-0.3631,-0.3572,-0.3561,-0.3601,-0.3515,-0.3503,-0.3468,-0.3467,-0.3455,-0.3451,-0.3374,-0.3374,-0.3374,-0.3419,0,0,0,0,0,0,-0.3845,-0.383,-0.3822,-0.376,-0.3742,-0.3687,-0.3661,-0.3649,-0.3624,-0.362,-0.356,-0.355,-0.3514,-0.3474,-0.3464,-0.3461,-0.3448,-0.3373,-0.3374,-0.3374,-0.3417,-0.342,-0.3423,0,0,0,0,0,-0.385,-0.3839,-0.3822,-0.3809,-0.3732,-0.3687,-0.3677,-0.3635,-0.3625,-0.3616,-0.3578,-0.3552,-0.3469,-0.3471,-0.3459,-0.3455,-0.3373,-0.3374,-0.3374,-0.3416,-0.342,-0.3423,0,0,0,0,0,0,-0.3903,-0.383,-0.3811,-0.3779,-0.3739,-0.3677,-0.3666,-0.364,-0.3603,-0.3601,-0.355,-0.3537,-0.3506,-0.3477,-0.3481,-0.3433,-0.3418,-0.3416,-0.3454,-0.3457,-0.346,-0.3468,-0.3445,0,0,0,0,0,-0.3911,-0.388,-0.3818,-0.3796,-0.3777,-0.3725,-0.3704,-0.3675,-0.3632,-0.3615,-0.3574,-0.3534,-0.3498,-0.3476,-0.344,-0.3412,-0.3398,-0.3404,-0.3407,-0.341,-0.3409,-0.3391,-0.3393,-0.3375,-0.3375,-0.3375,0,0,-0.3927,-0.3883,-0.3867,-0.3806,-0.3772,-0.3741,-0.3712,-0.3681,-0.3657,-0.361,-0.3574,-0.3543,-0.3494,-0.3463,-0.3446,-0.3437,-0.341,-0.341,-0.3413,-0.341,-0.3392,-0.3394,-0.3395,-0.3375,-0.3375,-0.3375,0,0,-0.3941,-0.3905,-0.3882,-0.3848,-0.3797,-0.3762,-0.3757,-0.3698,-0.3675,-0.3638,-0.3602,-0.3573,-0.3513,-0.348,-0.3455,-0.3455,-0.343,-0.3445,-0.3461,-0.3445,-0.3446,-0.3447,-0.3447,-0.3448,-0.3444,-0.3444,-0.3444,0,-0.3967,-0.392,-0.3874,-0.3845,-0.3819,-0.3774,-0.3751,-0.372,-0.366,-0.3643,-0.3633,-0.3557,-0.3521,-0.348,-0.348,-0.3462,-0.3454,-0.3452,-0.345,-0.345,-0.3451,-0.345,-0.345,-0.3446,-0.3446,-0.3446,-0.3445,0,-0.3955,-0.3922,-0.3911,-0.3853,-0.3825,-0.38,-0.375,-0.3727,-0.37,-0.3666,-0.3629,-0.3584,-0.3538,-0.3526,-0.35,-0.3481,-0.3477,-0.3459,-0.3443,-0.3455,-0.3454,-0.3453,-0.3449,-0.3448,-0.3448,-0.3447,0,0,-0.4001,-0.3917,-0.3913,-0.3886,-0.3825,-0.3799,-0.3771,-0.3726,-0.3707,-0.3667,-0.3642,-0.3592,-0.3574,-0.3546,-0.3515,-0.3501,-0.3503,-0.3484,-0.3482,-0.349,-0.348,-0.3495,-0.3495,-0.3486,-0.3485,-0.3485,-0.3485,0,-0.4006,-0.3953,-0.3911,-0.3874,-0.3843,-0.3799,-0.3774,-0.3734,-0.3702,-0.3671,-0.3634,-0.3599,-0.3579,-0.3562,-0.3545,-0.3507,-0.3501,-0.3506,-0.3462,-0.3461,-0.3476,-0.3495,-0.351,-0.3511,-0.3484,-0.3484,-0.3483,0,-0.4006,-0.3966,-0.3926,-0.3868,-0.3853,-0.3832,-0.3786,-0.3757,-0.371,-0.3687,-0.3656,-0.3623,-0.3591,-0.3577,-0.3532,-0.3536,-0.3516,-0.3494,-0.3493,-0.3488,-0.3474,-0.349,-0.3511,-0.3512,-0.3482,-0.3482,-0.3482,0,-0.4043,-0.398,-0.3948,-0.3926,-0.3857,-0.3843,-0.3813,-0.3766,-0.3741,-0.3701,-0.3685,-0.3642,-0.3618,-0.3586,-0.3542,-0.3536,-0.3502,-0.3484,-0.3482,-0.3483,-0.3477,-0.3478,-0.3495,-0.3463,-0.3463,-0.3463,-0.3463,0,-0.4054,-0.4032,-0.3964,-0.3944,-0.3917,-0.3868,-0.3842,-0.3809,-0.3767,-0.374,-0.37,-0.3675,-0.3619,-0.3588,-0.3553,-0.3521,-0.3511,-0.3491,-0.3483,-0.3495,-0.3498,-0.3482,-0.3481,-0.3463,-0.3463,-0.3463,-0.3463,0,-0.4093,-0.4046,-0.4008,-0.3945,-0.3929,-0.3912,-0.3858,-0.3837,-0.3801,-0.3767,-0.3756,-0.3701,-0.3661,-0.3614,-0.356,-0.3537,-0.3508,-0.3494,-0.3524,-0.3519,-0.3519,-0.352,-0.3527,-0.3525,-0.3494,-0.3494,-0.3495,0,-0.4103,-0.4085,-0.4019,-0.3998,-0.397,-0.3936,-0.391,-0.386,-0.3835,-0.378,-0.3766,-0.3723,-0.3686,-0.3625,-0.358,-0.3538,-0.3524,-0.3529,-0.3517,-0.353,-0.3524,-0.3526,-0.3524,-0.3532,-0.3533,-0.3534,-0.3534,0,-0.4127,-0.4105,-0.4069,-0.4024,-0.3994,-0.3957,-0.3918,-0.3903,-0.3846,-0.3819,-0.3778,-0.375,-0.3693,-0.3652,-0.3604,-0.3573,-0.3544,-0.3538,-0.3535,-0.3548,-0.3566,-0.3557,-0.3533,-0.3538,-0.3538,-0.3537,-0.3537,-0.3537,-0.4152,-0.4133,-0.4084,-0.4045,-0.401,-0.3975,-0.3952,-0.3913,-0.3877,-0.3828,-0.38,-0.376,-0.3713,-0.3645,-0.3615,-0.3583,-0.3573,-0.3569,-0.3568,-0.3568,-0.3572,-0.357,-0.3574,-0.3573,-0.3573,-0.3573,-0.3573,0,-0.4174,-0.414,-0.4105,-0.4051,-0.402,-0.3994,-0.395,-0.3926,-0.3891,-0.3849,-0.3813,-0.3766,-0.3725,-0.3675,-0.3631,-0.3614,-0.36,-0.3604,-0.3605,-0.3599,-0.3583,-0.359,-0.3617,-0.3617,-0.3617,-0.3617,-0.3617,-0.3617,-0.4183,-0.4149,-0.4121,-0.4069,-0.4035,-0.3995,-0.3972,-0.3938,-0.3904,-0.3853,-0.3818,-0.3786,-0.3741,-0.3693,-0.3654,-0.364,-0.3626,-0.3634,-0.3617,-0.3604,-0.36,-0.3596,-0.3603,-0.3632,-0.3632,-0.3635,-0.3635,-0.3636]},{"header":{"parameterUnit":"m.s-1","parameterCategory":1,"la1":30.2991,"la2":30.254,"lo1":-89.0895,"lo2":-89.0444,"dy":0.0017,"dx":0.0017,"nx":28,"ny":28,"refTime":"2024-07-03T09:00:00:Z","depth":0,"parameterNumber":3,"parameterNumberName":"V-component_of_WINDS"},"data":[0,0,0,0,0,0,0,0,0,0,0,0,0,0,0,0,0,0,0,0,0,0,0,0,0,0,0,0,0,0,0,0,0,0,0,0,0,0,0,0,0,0,0,0,0,0,0,0,0,0,0,0,0,0,0,0,0,0,3.5327,3.5326,0,3.5307,3.5306,3.5306,3.5234,3.5232,3.5231,3.5229,3.521,3.5211,3.5212,0,0,0,0,0,0,0,0,0,0,0,0,0,3.5304,3.5305,3.5327,3.5326,3.5326,3.5307,3.5306,3.5306,3.5234,3.5232,3.523,3.5229,3.521,3.5211,3.5212,0,0,0,0,0,0,0,0,0,0,0,0,0,3.5302,3.5305,3.5327,3.5288,3.5284,3.5307,3.5306,3.5306,3.5235,3.5232,3.523,3.5228,3.5209,3.5211,3.5212,3.5271,0,0,3.5217,3.5217,0,0,0,0,0,0,0,0,3.5302,3.5303,3.5294,3.5291,3.5287,3.527,3.5291,3.5294,3.5235,3.5254,3.5229,3.5226,3.5232,3.5232,3.5233,3.527,3.5269,3.5217,3.5218,3.5218,3.5219,0,0,0,0,0,0,0,3.5303,3.5304,3.5319,3.5294,3.5289,3.5272,3.5269,3.5292,3.5257,3.5252,3.5247,3.5245,3.523,3.5232,3.5232,3.5269,3.5217,3.5218,3.5219,3.522,3.5353,3.5355,0,0,0,0,0,0,3.5308,3.5304,3.5319,3.5318,3.5289,3.5275,3.5271,3.5278,3.5256,3.5251,3.5247,3.5242,3.5231,3.5231,3.5231,3.5298,3.5218,3.522,3.5221,3.535,3.5353,3.5356,0,0,0,0,0,0,3.5308,3.531,3.532,3.531,3.531,3.5278,3.5286,3.5279,3.5281,3.5253,3.5247,3.5256,3.5229,3.5229,3.5261,3.5296,3.5221,3.5222,3.5347,3.5351,3.5355,3.5433,0,0,0,0,0,0,3.5308,3.531,3.5332,3.5311,3.5311,3.535,3.5288,3.528,3.5284,3.5277,3.5259,3.5254,3.5227,3.526,3.5263,3.5297,3.5223,3.5344,3.5349,3.5353,3.5427,3.5439,3.5449,0,0,0,0,0,3.5307,3.5355,3.5333,3.5336,3.5337,3.5352,3.5352,3.5319,3.5287,3.5308,3.5291,3.5255,3.5293,3.5263,3.5267,3.5302,3.5341,3.5347,3.5353,3.5422,3.5436,3.5449,0,0,0,0,0,0,3.5381,3.5351,3.5327,3.5369,3.5364,3.534,3.5366,3.5336,3.534,3.5333,3.5293,3.5289,3.5327,3.5318,3.5286,3.5358,3.5311,3.5318,3.5362,3.5376,3.5387,3.5388,3.5224,0,0,0,0,0,3.5402,3.5417,3.5391,3.5431,3.5429,3.5399,3.5404,3.538,3.5372,3.537,3.5354,3.5349,3.5359,3.5367,3.5376,3.5426,3.5421,3.5452,3.5463,3.5472,3.5478,3.5504,3.5517,3.5375,3.5375,3.5375,0,0,3.5446,3.5432,3.5444,3.5445,3.5438,3.5455,3.5397,3.5417,3.5429,3.5373,3.5402,3.5391,3.5382,3.5424,3.5441,3.5417,3.5517,3.548,3.5487,3.5488,3.5511,3.5525,3.5537,3.5379,3.5379,3.5378,0,0,3.5535,3.5526,3.5558,3.5552,3.5542,3.5521,3.553,3.5511,3.5501,3.553,3.5488,3.5502,3.5521,3.5517,3.5517,3.5606,3.5573,3.561,3.5668,3.5693,3.5705,3.5714,3.5746,3.5757,3.5616,3.5617,3.5617,0,3.559,3.5613,3.5578,3.5601,3.5603,3.5553,3.5586,3.5582,3.5576,3.5578,3.5552,3.5575,3.5566,3.5606,3.5627,3.563,3.5637,3.5611,3.5706,3.5715,3.5724,3.5753,3.5765,3.5621,3.5621,3.562,3.562,0,3.5683,3.57,3.5727,3.5722,3.5727,3.5755,3.5724,3.5734,3.571,3.5692,3.5723,3.571,3.5715,3.5723,3.5699,3.576,3.5745,3.5713,3.5665,3.5742,3.5769,3.578,3.5627,3.5626,3.5625,3.5623,0,0,3.5815,3.5791,3.5802,3.5799,3.5785,3.5798,3.5824,3.5828,3.5838,3.5836,3.5856,3.5874,3.5845,3.5845,3.5821,3.5844,3.5914,3.5808,3.5808,3.5828,3.598,3.6004,3.6018,3.5893,3.5895,3.5897,3.5981,0,3.5899,3.5941,3.5911,3.5958,3.5974,3.5928,3.595,3.5945,3.593,3.5941,3.5924,3.5938,3.5898,3.5898,3.5918,3.5902,3.5944,3.5895,3.5912,3.5913,3.5915,3.6032,3.6057,3.6137,3.5991,3.5993,3.5994,0,3.6001,3.6004,3.6053,3.6037,3.6042,3.6063,3.6065,3.6076,3.607,3.6057,3.6059,3.6028,3.6053,3.6007,3.6041,3.6009,3.6014,3.6007,3.601,3.6009,3.5958,3.6034,3.6161,3.6173,3.6011,3.6009,3.6008,0,3.6093,3.6108,3.614,3.6139,3.6121,3.6137,3.613,3.612,3.6125,3.6128,3.6131,3.6136,3.6139,3.6145,3.6117,3.6086,3.6155,3.6106,3.6145,3.6146,3.616,3.616,3.629,3.6166,3.6166,3.6166,3.6165,0,3.6188,3.622,3.618,3.62,3.6234,3.62,3.6235,3.6224,3.6216,3.6233,3.6194,3.621,3.6173,3.6186,3.6165,3.6197,3.6198,3.6189,3.6183,3.6192,3.6193,3.6194,3.6188,3.6169,3.6168,3.6167,3.6167,0,3.6295,3.627,3.6301,3.6282,3.6278,3.6304,3.6288,3.6305,3.6288,3.631,3.6313,3.6286,3.6299,3.6273,3.6283,3.6269,3.6313,3.6298,3.6315,3.631,3.635,3.6347,3.6485,3.6501,3.6368,3.6369,3.637,0,3.6358,3.6381,3.6364,3.6373,3.6368,3.6382,3.6387,3.6354,3.6361,3.6356,3.6374,3.6384,3.639,3.6414,3.6396,3.6404,3.6389,3.6437,3.6389,3.6398,3.6389,3.6387,3.6389,3.6446,3.6448,3.6449,3.645,0,3.6471,3.6457,3.6466,3.6471,3.6478,3.648,3.6479,3.6489,3.6454,3.6464,3.6477,3.6482,3.6493,3.6503,3.6507,3.65,3.647,3.6465,3.6475,3.6484,3.6492,3.6487,3.6341,3.6462,3.6461,3.646,3.6459,3.6459,3.6556,3.6575,3.6567,3.6578,3.6574,3.6575,3.659,3.6575,3.6586,3.6591,3.6572,3.659,3.6583,3.6585,3.6582,3.6595,3.6574,3.6587,3.6591,3.6594,3.6601,3.6491,3.6596,3.6596,3.6595,3.6595,3.6595,0,3.6667,3.6659,3.667,3.6671,3.668,3.6651,3.6649,3.6658,3.6674,3.6671,3.6678,3.6694,3.6704,3.6687,3.6695,3.6709,3.6696,3.6713,3.6711,3.671,3.6619,3.661,3.6724,3.6724,3.6724,3.6723,3.6723,3.6723,3.6725,3.6755,3.6741,3.677,3.6762,3.6779,3.6781,3.6781,3.6778,3.6797,3.6806,3.6795,3.6786,3.6793,3.6802,3.6797,3.6801,3.6823,3.6813,3.6729,3.6716,3.6704,3.6695,3.6824,3.6824,3.6902,3.6902,3.6903]}]]